全球星 M067星 (GLOBALSTAR M067)

导读

GLOBALSTAR M067卫星是全球星卫星通信公司运营的低轨移动通信卫星,于2007年10月20日发射,属于第二代全球星星座,设计寿命15年,目前仍在轨运行。它主要为手持终端及移动设备提供语音与数据通信服务,可满足偏远地区通信需求,采用先进通信技术提升信号质量与可靠性,是扩展全球卫星通信网络的重要组成部分。

基本信息
目录编号:
32263
目录名称:
GLOBALSTAR M067
国际标识:
2007-048A
轨道中心:
EARTH
卫星名称:
全球星 M067星
卫星全名:
全球星 M067星 (GLOBALSTAR M067)
卫星状态:
在轨 (已飞行6842 天)
发射日期:
2007-10-20 UTC
国别 :
(GLOB)
星等 :
--
轨道信息
数据来源 国际轨道数据 AOE轨道数据
星历时间 2026-07-13T21:09:05+0800
15小时前
查看轨道信息
2026-07-13T18:00:00+0800
18小时前
查看轨道信息
半长轴 7881.81km 7881.811km
偏心率 0.0001917 0.0001944
轨道倾角 51.975° 51.976°
近地点辐角 100.447° 94.775°
升交点赤经 330.755° 331.141°
平近点角 337.929° 116.855°
近地点 1502.162km 1502.141km
远地点 1505.184km 1505.207km
周期 116.064分钟 116.064分钟
每日圈数 12.406916 12.406914
详细信息
固有亮度:
5
最大亮度:
7.9
平衡模式:
三轴稳定
覆盖范围:
全球
运营商:
全球星公司
运营商所在国:
美国
使用方式:
暂无
卫星简介
全球星星座由48颗卫星加8颗备份星组成。这些卫星分布在8个倾角为52度的圆形轨道平面上,每个轨道平面6颗卫星,另有1 颗备用星。轨道高度约为1414km,传输时延和处理时延小于300ms,整个系统的覆盖区为南北纬70度以内的地区。该卫星已退役。
2D轨道图
3D轨道图
轨道高度分析图
轨道倾角分析图
轨道综合分析图
查看轨道综合分析图